Location: Unspecified
(0.0000°N, 0.0000°E)
Time: 06:44:59
(UTC+00:00)

Vanguard 2 - Pass Details

Date: 22 September 2019
Orbit: 554 x 2937 km, 32.9° (Epoch: 14 October)

Event Time Altitude Azimuth Distance (km) Brightness Sun altitude
Rises 01:03:41 0° 256° (WSW) 6,761 - -72.3°
Reaches altitude 10° 01:08:46 10° 263° (W) 5,766 - -71.0°
Maximum altitude 01:24:17 38° 324° (NW) 3,555 - -67.2°
Drops below altitude 10° 01:36:20 10° 28° (NNE) 4,477 - -64.2°
Exits shadow 01:36:28 10° 28° (NNE) 4,501 11.5 -64.1°
Sets 01:39:46 0° 37° (NE) 5,158 12.0 -63.3°
